CW1102 Weather Reports


Display with metric or nautical units.
time (UTC)temp
F
wind
direction
speed
MPH
gust
MPH
rain 1hr
in
rain 24hr
in
rain mn
in
humidity
%
barometer
mb
20260509054534 57 257 4.0 11.0 0.00 0.00 0.00 47 1017.8
20260509053025 57 295 6.0 17.0 0.00 0.00 0.00 46 1017.6
20260509051523 58 328 8.0 16.0 0.00 0.00 0.00 44 1017.5
20260509050021 58 293 5.0 9.0 0.00 0.00 0.00 44 1017.2
20260509044519 59 265 2.0 8.0 0.00 0.00 0.00 42 1017.0
20260509043017 59 324 5.0 11.0 0.00 0.00 0.00 40 1017.0
20260509041516 60 278 0.0 14.0 0.00 0.00 0.00 40 1016.7
20260509040015 61 290 7.0 16.0 0.00 0.00 0.00 39 1016.6
20260509034513 61 290 9.0 17.0 0.00 0.00 0.00 38 1016.3
20260509033012 61 304 6.0 21.0 0.00 0.00 0.00 37 1016.0
20260509031512 61 299 5.0 15.0 0.00 0.00 0.00 37 1015.8
20260509030012 62 274 10.0 20.0 0.00 0.00 0.00 36 1015.7
20260509024511 63 286 7.0 14.0 0.00 0.00 0.00 34 1015.4
20260509023010 64 275 6.0 16.0 0.00 0.00 0.00 32 1015.3
20260509021509 65 290 8.0 21.0 0.00 0.00 0.00 30 1015.2
20260509020017 65 317 7.0 13.0 0.00 0.00 0.00 29 1014.9
20260509014515 66 312 6.0 20.0 0.00 0.00 0.00 28 1014.9
20260509011507 67 269 13.0 26.0 0.00 0.00 0.00 25 1014.8
20260509010006 68 282 13.0 22.0 0.00 0.00 0.00 25 1014.7
20260509004510 68 303 9.0 18.0 0.00 0.00 0.00 28 1014.5
20260509003005 69 252 7.0 16.0 0.00 0.00 0.00 31 1014.4
20260509001504 69 302 6.0 12.0 0.00 0.00 0.00 33 1014.4
20260509000002 69 293 5.0 12.0 0.00 0.00 0.00 34 1014.3
20260508234500 69 267 10.0 16.0 0.00 0.00 0.00 35 1014.5
20260508233124 68 321 6.0 12.0 0.00 0.00 0.00 36 1014.6
20260508231600 68 319 8.0 16.0 0.00 0.00 0.00 35 1014.7
20260508230101 68 297 9.0 16.0 0.00 0.00 0.00 35 1014.8
20260508224558 68 330 6.0 15.0 0.00 0.00 0.00 33 1014.8
20260508223057 67 336 8.0 15.0 0.00 0.00 0.00 32 1014.7
20260508221556 67 297 4.0 13.0 0.00 0.00 0.00 31 1014.7
20260508220056 67 285 5.0 11.0 0.00 0.00 0.00 31 1014.9
20260508214555 67 277 9.0 17.0 0.00 0.00 0.00 31 1014.8
20260508213054 67 281 9.0 18.0 0.00 0.00 0.00 29 1014.7
20260508211554 68 318 9.0 19.0 0.00 0.00 0.00 29 1014.7
20260508210052 68 286 13.0 18.0 0.00 0.00 0.00 28 1014.7
20260508204554 67 309 10.0 18.0 0.00 0.00 0.00 29 1014.8
20260508203049 68 291 10.0 20.0 0.00 0.00 0.00 29 1014.7
20260508201549 68 300 5.0 20.0 0.00 0.00 0.00 28 1014.7
20260508200103 65 13 8.0 17.0 0.00 0.00 0.00 31 1014.7
20260508194543 65 305 7.0 14.0 0.00 0.00 0.00 30 1014.8
20260508193055 65 316 6.0 14.0 0.00 0.00 0.00 31 1014.8
20260508191542 65 335 8.0 11.0 0.00 0.00 0.00 28 1014.9
20260508190038 64 338 6.0 14.0 0.00 0.00 0.00 28 1014.8
20260508184535 64 296 6.0 14.0 0.00 0.00 0.00 29 1015.0
20260508183032 63 313 4.0 8.0 0.00 0.00 0.00 35 1015.1
20260508181629 60 326 3.0 5.0 0.00 0.00 0.00 53 1015.2
20260508180027 58 318 1.0 6.0 0.00 0.00 0.00 55 1015.3
20260508174522 58 262 3.0 5.0 0.00 0.00 0.00 54 1015.4
20260508173022 56 309 2.0 4.0 0.00 0.00 0.00 56 1015.5
20260508171518 54 283 2.0 4.0 0.00 0.00 0.00 55 1015.7
20260508170014 52 285 1.0 4.0 0.00 0.00 0.00 60 1015.7
20260508164514 52 296 1.0 4.0 0.00 0.00 0.00 60 1015.7
20260508163016 50 259 1.0 3.0 0.00 0.00 0.00 61 1015.8
20260508161511 49 34 1.0 4.0 0.00 0.00 0.00 65 1015.9
20260508160007 49 27 0.0 2.0 0.00 0.00 0.00 62 1015.9
20260508154504 48 290 0.0 2.0 0.00 0.00 0.00 62 1015.9
20260508153001 46 104 0.0 2.0 0.00 0.00 0.00 67 1016.0
20260508151609 46 95 2.0 3.0 0.00 0.00 0.00 67 1016.1
20260508150056 43 111 1.0 4.0 0.00 0.00 0.00 74 1016.2
20260508144607 42 81 1.0 5.0 0.00 0.00 0.00 74 1016.3
20260508143102 41 56 1.0 4.0 0.00 0.00 0.00 76 1016.4
20260508141604 41 60 0.0 2.0 0.00 0.00 0.00 75 1016.3
20260508140053 39 76 0.0 2.0 0.00 0.00 0.00 78 1016.3
20260508134612 37 69 0.0 2.0 0.00 0.00 0.00 81 1016.2
20260508133057 37 112 0.0 1.0 0.00 0.00 0.00 82 1016.1
20260508131551 34 112 0.0 1.0 0.00 0.00 0.00 85 1016.0
20260508130047 32 120 0.0 1.0 0.00 0.00 0.00 90 1015.9
20260508124545 32 112 0.0 1.0 0.00 0.00 0.00 90 1015.8
20260508123049 32 108 0.0 0.0 0.00 0.00 0.00 89 1015.5
20260508121538 32 54 0.0 0.0 0.00 0.00 0.00 89 1015.4
20260508114535 33 51 0.0 0.0 0.00 0.00 0.00 88 1015.2
20260508113034 33 243 0.0 0.0 0.00 0.00 0.00 87 1015.1
20260508111536 33 243 0.0 0.0 0.00 0.00 0.00 87 1014.9
20260508110027 33 243 0.0 1.0 0.00 0.00 0.00 86 1014.8
20260508104525 35 233 0.0 2.0 0.00 0.00 0.00 85 1014.7
20260508103027 35 122 1.0 3.0 0.00 0.00 0.00 86 1014.6
20260508101520 35 122 0.0 2.0 0.00 0.00 0.00 85 1014.5
20260508100017 35 99 1.0 2.0 0.00 0.00 0.00 85 1014.4
20260508071549 42 96 0.0 0.0 0.00 0.00 0.00 77 1013.2
20260508064547 44 86 0.0 2.0 0.00 0.00 0.00 75 1013.1
20260508063044 44 316 0.0 0.0 0.00 0.00 0.00 74 1013.0
20260508061543 45 320 0.0 1.0 0.00 0.00 0.00 73 1012.9
20260508060053 46 105 0.0 0.0 0.00 0.00 0.00 72 1012.7